Powrót do katalogu

STARLINK-33994

AktywnyŁącznośćVLEO
NORAD 63931·PAYLOAD·🇺🇸 United States

Wystrzelony May 13, 2025 z Vandenberg Space Force Base

Loading…

Następne Przeloty (najbliższe 24 godziny)

TLE

ŚwieżeSource: CelesTrak SupGP

Epoka: Sep 14, 2026, 22:47 UTC

1 63931C 25098F   26257.94979167 -.00033278  00000+0 -11574-2 0  2571
2 63931  70.0002 155.6307 0003135 269.0580  63.1026 15.29602042    12

Śledź STARLINK-33994 w czasie rzeczywistym z AllMySat

Download on the App Store